Charlottetown, Prince Edward Island

9:11 AM ADT on June 22, 2017 (GMT -0300)
Charlottetown

Weather History for CYYG - April, 2014

Change the Weather History Date:

Saturday, April 5, 2014

  Actual Average Record
Temperature  
Mean Temperature 32 °F -  
Max Temperature 39 °F 45 °F 51 °F (2011)
Min Temperature 24 °F 31 °F 14 °F (2003)
Degree Days  
Heating Degree Days 34    
Moisture  
Dew Point 30 °F    
Average Humidity 90    
Maximum Humidity 100    
Minimum Humidity 75    
Precipitation  
Precipitation 0.43 in 0.12 in - ()
Sea Level Pressure  
Sea Level Pressure 29.91 in    
Wind  
Wind Speed 11 mph ()    
Max Wind Speed 21 mph    
Max Gust Speed 30 mph    
Visibility 10.7 miles    
Events Rain , Snow    
Averages and records for this station are not official NWS values.
T = Trace of Precipitation, MM = Missing Value Source: Averaged Metar Reports

Daily Weather History Graph

Daily Weather History Graph

Search for Another Location

Airport or City:

Trip Planner

Search our weather history database for the weather conditions in past years. The results will help you decide how hot, cold, wet, or windy it might be!

Date:

Astronomy

Apr. 05, 2014 Rise Set
Actual Time 6:44 AM ADT 7:46 PM ADT
Civil Twilight 6:14 AM ADT 8:17 PM ADT
Nautical Twilight 5:37 AM ADT 8:54 PM ADT
Astronomical Twilight 4:58 AM ADT 9:33 PM ADT
Moon 10:36 AM ADT (4/5) 1:04 AM ADT (4/5)
Length of Visible Light 14h 03m
Length of Day
13h 01m
Waxing Crescent, 34% of the Moon is Illuminated
Apr 5
Waxing Crescent
Apr 7
First Quarter
Apr 15
Full
Apr 22
Last Quarter
Apr 29
New

Hourly Weather History & Observations

Time (ADT) Temp. Windchill Dew Point Humidity Pressure Visibility Wind Dir Wind Speed Gust Speed Precip Events Conditions
12:00 AM 26.6 °F 20.0 °F 24.8 °F 93% 30.17 in 15.0 mi SE 5.8 mph - N/A   Scattered Clouds
1:00 AM 24.8 °F 17.9 °F 23.0 °F 93% 30.14 in 15.0 mi SE 5.8 mph - N/A   Scattered Clouds
2:00 AM 24.8 °F 17.9 °F 24.8 °F 100% 30.13 in 15.0 mi ESE 5.8 mph - N/A   Mostly Cloudy
3:00 AM 26 °F - 24 °F 88% 30.17 in 15 mi South 5.8 mph - -   Clear
3:00 AM 26.6 °F 21.2 °F 23.0 °F 86% 30.17 in 15.0 mi South 4.6 mph - N/A   Mostly Cloudy
4:00 AM 24.8 °F 16.1 °F 24.8 °F 100% 30.14 in 15.0 mi ESE 8.1 mph - N/A   Mostly Cloudy
5:00 AM 24.8 °F 16.1 °F 24.8 °F 100% 30.12 in 15.0 mi SE 8.1 mph - N/A   Overcast
6:00 AM 26.6 °F 19.1 °F 24.8 °F 93% 30.12 in 15.0 mi SE 6.9 mph - N/A   Overcast
6:20 AM 28.4 °F 20.4 °F 26.6 °F 93% 30.11 in 15.0 mi SE 8.1 mph - N/A   Overcast
7:00 AM 28.4 °F 21.2 °F 26.6 °F 93% 30.12 in 15.0 mi SE 6.9 mph - N/A   Overcast
8:00 AM 30.2 °F 21.3 °F 28.4 °F 93% 30.11 in 15.0 mi SE 10.4 mph - N/A   Overcast
8:51 AM 30.2 °F 20.2 °F 28.4 °F 93% 30.09 in 15.0 mi SE 12.7 mph - N/A   Overcast
9:00 AM 31 °F - 28 °F 81% 30.09 in 15 mi SE 12.7 mph - -   Overcast
9:00 AM 30.2 °F 19.8 °F 28.4 °F 93% 30.09 in 15.0 mi SE 13.8 mph - N/A   Overcast
10:00 AM 32.0 °F 22.1 °F 26.6 °F 80% 30.07 in 15.0 mi SE 13.8 mph 20.7 mph N/A   Overcast
11:00 AM 33.8 °F 24.8 °F 26.6 °F 75% 30.05 in 15.0 mi SE 12.7 mph - N/A   Overcast
12:00 PM 35.6 °F 25.9 °F 28.4 °F 75% 30.02 in 15.0 mi SSE 16.1 mph 23.0 mph N/A   Overcast
12:21 PM 35.6 °F 25.5 °F 28.4 °F 75% 30.02 in 15.0 mi SE 17.3 mph 26.5 mph N/A   Overcast
12:47 PM 35.6 °F 24.5 °F 28.4 °F 75% 30.00 in 15.0 mi SE 20.7 mph 26.5 mph N/A Snow Light Snow
1:00 PM 35.6 °F 25.5 °F 28.4 °F 75% 29.99 in 10.0 mi SE 17.3 mph 27.6 mph N/A Snow Light Snow
1:19 PM 35.6 °F 24.5 °F 28.4 °F 75% 29.97 in 2.5 mi SE 20.7 mph 27.6 mph N/A Snow Light Snow
2:00 PM 33.8 °F 23.2 °F 30.2 °F 87% 29.96 in 2.5 mi SE 17.3 mph 24.2 mph N/A Snow Light Snow
2:33 PM 33.8 °F 23.5 °F 30.2 °F 87% 29.94 in 2.5 mi SE 16.1 mph - N/A Snow Light Snow
2:39 PM 33.8 °F 23.5 °F 30.2 °F 87% 29.91 in 4.0 mi SE 16.1 mph 24.2 mph N/A Rain Light Rain
3:00 PM 33 °F - 31 °F 90% 29.90 in 4 mi SE 18.4 mph - -   Ice Pellets
3:00 PM 33.8 °F 22.8 °F 32.0 °F 93% 29.90 in 4.0 mi SE 18.4 mph 25.3 mph N/A Rain Light Rain
3:12 PM 33.8 °F 22.5 °F 32.0 °F 93% 29.87 in 3.0 mi ESE 19.6 mph 26.5 mph N/A Rain , Snow Light Rain
4:00 PM 33.8 °F 23.5 °F 32.0 °F 93% 29.84 in 4.0 mi SE 16.1 mph 27.6 mph N/A Rain Light Rain
4:21 PM 33.8 °F 22.2 °F 32.0 °F 93% 29.82 in 4.0 mi SE 20.7 mph 28.8 mph N/A Rain Light Rain
5:00 PM 33.8 °F 22.5 °F 32.0 °F 93% 29.80 in 4.0 mi SE 19.6 mph 29.9 mph N/A Rain Light Rain
6:00 PM 33.8 °F 23.5 °F 32.0 °F 93% 29.74 in 10.0 mi ESE 16.1 mph 25.3 mph N/A Rain Light Rain
6:07 PM 33.8 °F 23.2 °F 32.0 °F 93% 29.74 in 12.0 mi ESE 17.3 mph - N/A   Overcast
7:00 PM 33.8 °F 23.9 °F 32.0 °F 93% 29.69 in 15.0 mi ESE 15.0 mph 21.9 mph N/A   Overcast
8:00 PM 37.4 °F 27.2 °F 35.6 °F 93% 29.63 in 15.0 mi SE 19.6 mph 27.6 mph N/A   Overcast
9:00 PM 38 °F - 36 °F 89% 29.60 in 15 mi SE 17.3 mph - -   Partly Cloudy
9:00 PM 37.4 °F 27.8 °F 35.6 °F 93% 29.59 in 15.0 mi SE 17.3 mph 26.5 mph N/A   Overcast
9:33 PM 39.2 °F 29.8 °F 37.4 °F 93% 29.57 in 12.0 mi SE 18.4 mph 25.3 mph N/A   Overcast
10:00 PM 37.4 °F 28.2 °F 35.6 °F 93% 29.58 in 12.0 mi SSE 16.1 mph 21.9 mph N/A   Overcast
10:48 PM 37.4 °F 28.5 °F 37.4 °F 100% 29.57 in 8.0 mi SSE 15.0 mph 20.7 mph N/A   Light Drizzle
11:00 PM 37.4 °F 29.3 °F 35.6 °F 93% 29.56 in 3.0 mi SSE 12.7 mph 19.6 mph N/A   Light Drizzle
11:09 PM 37.4 °F 29.8 °F 35.6 °F 93% 29.56 in 2.0 mi SSE 11.5 mph - N/A   Light Drizzle
11:21 PM 37.4 °F 30.8 °F 35.6 °F 93% 29.55 in 2.0 mi SSE 9.2 mph - N/A   Light Drizzle